TimeEDT,TemperatureF,Dew PointF,Humidity,Sea Level PressureIn,VisibilityMPH,Wind Direction,Wind SpeedMPH,Gust SpeedMPH,PrecipitationIn,Events,Conditions,WindDirDegrees,DateUTC
12:15 AM,62.6,51.8,68,29.79,10.0,SSE,4.6,-,N/A,,Clear,150,2014-04-13 04:15:00
12:35 AM,62.6,51.8,68,29.79,10.0,Calm,Calm,-,N/A,,Clear,0,2014-04-13 04:35:00
12:55 AM,62.6,51.8,68,29.78,10.0,South,3.5,-,N/A,,Clear,170,2014-04-13 04:55:00
1:15 AM,62.6,51.8,68,29.78,10.0,SSE,3.5,-,N/A,,Clear,160,2014-04-13 05:15:00
1:35 AM,62.6,51.8,68,29.79,10.0,SSE,3.5,-,N/A,,Clear,160,2014-04-13 05:35:00
1:55 AM,62.6,51.8,68,29.79,10.0,Calm,Calm,-,N/A,,Scattered Clouds,0,2014-04-13 05:55:00
2:15 AM,60.8,51.8,72,29.79,10.0,SSE,3.5,-,N/A,,Mostly Cloudy,160,2014-04-13 06:15:00
2:35 AM,62.6,51.8,68,29.79,10.0,SSE,3.5,-,N/A,,Overcast,150,2014-04-13 06:35:00
2:55 AM,60.8,50.0,68,29.79,10.0,SE,3.5,-,N/A,,Scattered Clouds,130,2014-04-13 06:55:00
3:15 AM,59.0,50.0,72,29.79,10.0,ESE,3.5,-,N/A,,Scattered Clouds,120,2014-04-13 07:15:00
3:35 AM,57.2,50.0,77,29.79,10.0,SE,3.5,-,N/A,,Scattered Clouds,130,2014-04-13 07:35:00
3:55 AM,55.4,50.0,82,29.79,10.0,SSE,3.5,-,N/A,,Clear,150,2014-04-13 07:55:00
4:15 AM,59.0,50.0,72,29.79,10.0,Calm,Calm,-,N/A,,Clear,0,2014-04-13 08:15:00
4:35 AM,59.0,51.8,77,29.78,10.0,South,4.6,-,N/A,,Clear,170,2014-04-13 08:35:00
4:55 AM,59.0,51.8,77,29.77,10.0,South,3.5,-,N/A,,Clear,190,2014-04-13 08:55:00
5:15 AM,59.0,51.8,77,29.76,10.0,SSW,5.8,-,N/A,,Clear,200,2014-04-13 09:15:00
5:35 AM,60.8,51.8,72,29.76,10.0,SSW,5.8,-,N/A,,Clear,210,2014-04-13 09:35:00
5:55 AM,60.8,51.8,72,29.77,10.0,SW,6.9,-,N/A,,Clear,220,2014-04-13 09:55:00
6:15 AM,60.8,51.8,72,29.76,10.0,SW,6.9,-,N/A,,Scattered Clouds,220,2014-04-13 10:15:00
6:35 AM,60.8,53.6,77,29.76,10.0,SSW,6.9,-,N/A,,Scattered Clouds,210,2014-04-13 10:35:00
6:55 AM,60.8,53.6,77,29.76,10.0,SSW,8.1,-,N/A,,Scattered Clouds,210,2014-04-13 10:55:00
7:15 AM,60.8,53.6,77,29.76,10.0,SSW,4.6,-,N/A,,Scattered Clouds,200,2014-04-13 11:15:00
7:35 AM,60.8,53.6,77,29.77,10.0,SSW,5.8,-,N/A,,Scattered Clouds,210,2014-04-13 11:35:00
7:55 AM,60.8,53.6,77,29.76,10.0,South,10.4,-,N/A,,Clear,190,2014-04-13 11:55:00
8:15 AM,60.8,53.6,77,29.77,10.0,SSW,9.2,-,N/A,,Clear,200,2014-04-13 12:15:00
8:35 AM,62.6,53.6,72,29.78,10.0,SSW,10.4,16.1,N/A,,Clear,210,2014-04-13 12:35:00
8:55 AM,62.6,53.6,72,29.79,10.0,SSW,10.4,17.3,N/A,,Clear,210,2014-04-13 12:55:00
9:15 AM,64.4,53.6,68,29.79,10.0,SW,11.5,17.3,N/A,,Mostly Cloudy,220,2014-04-13 13:15:00
9:35 AM,64.4,53.6,68,29.79,10.0,SW,9.2,21.9,N/A,,Mostly Cloudy,230,2014-04-13 13:35:00
9:55 AM,64.4,53.6,68,29.79,10.0,SW,11.5,19.6,N/A,,Mostly Cloudy,220,2014-04-13 13:55:00
10:15 AM,66.2,55.4,68,29.79,10.0,SW,12.7,21.9,N/A,,Scattered Clouds,220,2014-04-13 14:15:00
10:55 AM,68.0,55.4,64,29.79,10.0,SW,11.5,21.9,N/A,,Clear,220,2014-04-13 14:55:00
11:15 AM,69.8,55.4,60,29.79,10.0,SSW,15.0,19.6,N/A,,Mostly Cloudy,210,2014-04-13 15:15:00
11:35 AM,68.0,55.4,64,29.79,10.0,SW,11.5,23.0,N/A,,Overcast,230,2014-04-13 15:35:00
11:55 AM,69.8,55.4,60,29.79,10.0,SW,18.4,26.5,N/A,,Mostly Cloudy,230,2014-04-13 15:55:00
12:15 PM,69.8,55.4,60,29.79,10.0,WSW,16.1,23.0,N/A,,Mostly Cloudy,240,2014-04-13 16:15:00
12:35 PM,71.6,55.4,57,29.79,10.0,WSW,17.3,26.5,N/A,,Mostly Cloudy,240,2014-04-13 16:35:00
12:55 PM,71.6,55.4,57,29.79,10.0,WSW,15.0,20.7,N/A,,Mostly Cloudy,240,2014-04-13 16:55:00
1:15 PM,69.8,55.4,60,29.80,10.0,SSW,13.8,19.6,N/A,,Overcast,210,2014-04-13 17:15:00
1:35 PM,71.6,55.4,57,29.79,10.0,SW,12.7,23.0,N/A,,Overcast,220,2014-04-13 17:35:00
2:15 PM,69.8,55.4,60,29.80,10.0,SW,15.0,23.0,N/A,,Overcast,230,2014-04-13 18:15:00
2:35 PM,69.8,53.6,56,29.79,10.0,SW,10.4,23.0,N/A,,Mostly Cloudy,230,2014-04-13 18:35:00
2:55 PM,69.8,53.6,56,29.79,10.0,SW,6.9,-,N/A,,Overcast,220,2014-04-13 18:55:00
3:15 PM,69.8,53.6,56,29.76,10.0,SSW,10.4,18.4,N/A,,Scattered Clouds,210,2014-04-13 19:15:00
3:35 PM,69.8,55.4,60,29.76,10.0,SW,10.4,-,N/A,,Mostly Cloudy,220,2014-04-13 19:35:00
3:55 PM,68.0,55.4,64,29.76,10.0,SSW,5.8,16.1,N/A,,Overcast,210,2014-04-13 19:55:00
4:15 PM,69.8,55.4,60,29.75,10.0,SSW,6.9,-,N/A,,Overcast,210,2014-04-13 20:15:00
4:35 PM,71.6,55.4,57,29.74,10.0,SW,4.6,16.1,N/A,,Mostly Cloudy,220,2014-04-13 20:35:00
4:55 PM,71.6,55.4,57,29.74,10.0,SSW,11.5,20.7,N/A,,Mostly Cloudy,200,2014-04-13 20:55:00
5:15 PM,71.6,53.6,53,29.73,10.0,SW,11.5,24.2,N/A,,Mostly Cloudy,230,2014-04-13 21:15:00
5:35 PM,71.6,55.4,57,29.73,10.0,SSW,12.7,19.6,N/A,,Overcast,200,2014-04-13 21:35:00
5:55 PM,71.6,55.4,57,29.72,10.0,South,6.9,-,N/A,,Overcast,180,2014-04-13 21:55:00
6:15 PM,71.6,55.4,57,29.71,10.0,South,9.2,-,N/A,,Overcast,180,2014-04-13 22:15:00
6:35 PM,71.6,53.6,53,29.70,10.0,SSW,5.8,-,N/A,,Overcast,200,2014-04-13 22:35:00
6:55 PM,71.6,53.6,53,29.69,10.0,South,5.8,-,N/A,,Overcast,170,2014-04-13 22:55:00
7:15 PM,69.8,53.6,56,29.68,10.0,South,6.9,-,N/A,,Overcast,180,2014-04-13 23:15:00
7:35 PM,69.8,53.6,56,29.67,10.0,South,5.8,-,N/A,,Overcast,180,2014-04-13 23:35:00
7:55 PM,69.8,53.6,56,29.67,10.0,SSW,4.6,-,N/A,,Overcast,210,2014-04-13 23:55:00
8:15 PM,69.8,55.4,60,29.67,10.0,WSW,4.6,-,N/A,,Overcast,240,2014-04-14 00:15:00
8:35 PM,68.0,55.4,64,29.66,10.0,WSW,6.9,-,N/A,,Overcast,240,2014-04-14 00:35:00
8:55 PM,66.2,55.4,68,29.65,10.0,SW,3.5,-,N/A,,Scattered Clouds,230,2014-04-14 00:55:00
9:15 PM,66.2,55.4,68,29.66,10.0,SSW,3.5,-,N/A,,Mostly Cloudy,210,2014-04-14 01:15:00
9:35 PM,68.0,55.4,64,29.67,10.0,SSW,8.1,-,N/A,,Mostly Cloudy,210,2014-04-14 01:35:00
9:55 PM,68.0,55.4,64,29.66,10.0,SSW,10.4,17.3,N/A,,Mostly Cloudy,210,2014-04-14 01:55:00
10:15 PM,68.0,55.4,64,29.64,10.0,SSW,6.9,20.7,N/A,,Overcast,200,2014-04-14 02:15:00
10:35 PM,68.0,53.6,60,29.63,10.0,SSW,11.5,18.4,N/A,,Overcast,210,2014-04-14 02:35:00
10:55 PM,69.8,53.6,56,29.62,10.0,SSW,9.2,20.7,N/A,,Overcast,200,2014-04-14 02:55:00
11:15 PM,68.0,55.4,64,29.61,10.0,SSW,5.8,-,N/A,Rain,Light Rain,210,2014-04-14 03:15:00
11:35 PM,68.0,55.4,64,29.61,10.0,SSW,4.6,-,N/A,,Overcast,200,2014-04-14 03:35:00
11:55 PM,68.0,55.4,64,29.61,10.0,WSW,6.9,-,N/A,Rain,Light Rain,240,2014-04-14 03:55:00